Location: ????????
(38.3085°N, 23.4432°E)
Time: 18:45:45
(UTC+00:00)

Daily predictions for brighter satellites

Satellite Brightness Start Highest point End
(mag) Time Altitude Azimuth Time Altitude Azimuth Time Altitude Azimuth
Landsat 7 3.8 17:04:03 10° SSE 17:08:44 87° ENE 17:13:27 10° NNW
ATLAS CENTAUR R/B 3.3 17:05:45 10° NNW 17:10:40 48° NE 17:18:13 10° ESE
Cosmos 2360 Rocket 2.5 17:07:04 10° SSW 17:12:42 75° WNW 17:18:22 10° NNE
Cosmos 1898 Rocket 3.8 17:12:37 10° N 17:17:47 50° ENE 17:22:53 10° SE
Cosmos 1459 Rocket 4.5 17:12:54 10° SSW 17:18:55 65° W 17:24:56 10° N
Okean O Rocket 3.6 17:18:09 10° ENE 17:19:17 11° ENE 17:20:26 10° NE
Cosmos 2322 Rocket 3.3 17:16:05 10° SW 17:21:36 50° WNW 17:27:08 10° NNE
USA 306 3.4 17:19:38 10° S 17:21:52 21° SE 17:24:26 10° ENE
Cosmos 1151 Rocket 3.4 17:19:08 10° N 17:23:10 40° E 17:27:09 10° SSE
Resurs 01 Rocket 2.9 17:20:04 10° ESE 17:23:25 22° ENE 17:26:47 10° NNE
ACS3 Solar Sail 3.3 17:20:14 10° ESE 17:24:17 18° ENE 17:28:20 10° NNE
Cosmos 1340 2.7 17:21:27 10° SSE 17:24:31 40° E 17:27:36 10° NNE
Meteor PRIRODA 3.8 17:23:37 10° SE 17:26:46 41° ENE 17:29:54 10° N
USA 186 3.4 17:25:34 12° ESE 17:27:18 18° ENE 17:29:32 10° NNE
Cosmos 2333 Rocket 3.0 17:23:41 10° SW 17:29:21 58° WNW 17:35:03 10° NNE
ATLAS 3B R/B 3.0 17:24:48 10° NNW 17:32:44 84° ENE 17:40:22 10° SSE
Cosmos 2219 Rocket 2.2 17:27:57 10° SSW 17:33:38 84° ESE 17:39:20 10° NNE
Helios 1A 2.8 17:32:00 10° NNE 17:36:05 72° ESE 17:40:06 10° S
Meteor 1-5 Rocket 4.2 17:31:11 10° S 17:36:43 84° E 17:42:29 10° N
BlueWalker 3 4.4 17:37:21 10° N 17:38:29 11° NNE 17:39:38 10° NNE
SAR-Lupe-2 3.7 17:37:16 10° S 17:40:48 76° WSW 17:44:23 10° NNW
SL-08 R/B 3.6 17:35:55 10° N 17:40:51 79° WNW 17:45:45 10° SSW
USA 229 DEB 4.3 17:34:19 10° NNW 17:41:43 53° NE 17:48:31 15° SE
USA 229 4.3 17:34:29 10° NNW 17:41:52 53° NE 17:48:36 15° SE
CZ-4B R/B 3.3 17:42:20 10° SSE 17:47:03 87° WSW 17:51:50 10° NNW
Timation 2 Rocket 4.0 17:42:22 10° NNW 17:48:41 70° ENE 17:55:13 10° SSE
Cosmos 1766 Rocket 3.8 17:48:05 10° SSE 17:52:10 43° E 17:56:18 10° NNE
SJ-6B 2.7 17:48:34 10° S 17:52:14 79° WSW 17:55:53 10° NNW
Cosmos 1626 2.6 17:49:26 10° NNW 17:52:21 47° W 17:55:14 10° S
Cosmos 2322 3.6 17:48:40 10° S 17:54:14 66° ESE 17:59:51 10° NNE
Cosmos 1844 Rocket 4.1 17:50:13 10° NW 17:55:26 39° WSW 18:00:39 10° S
GEOS 3 Rocket 3.7 17:55:00 12° SSE 17:59:51 81° WSW 18:05:05 10° NW
Cosmos 1066 Rocket 4.3 17:56:27 10° N 18:02:15 59° ENE 18:07:17 14° SSE
Cosmos 1400 Rocket 2.7 18:06:19 10° N 18:10:07 56° E 18:11:19 37° SE
CZ-4 R/B 1.4 18:06:30 10° S 18:10:11 70° WSW 18:14:01 10° NNW
COSMOS 2428 2.6 18:07:33 10° SSW 18:13:13 77° ESE 18:18:57 10° NNE
CSL-04 Debris 4.1 18:10:18 18° SSE 18:14:20 67° ENE 18:19:46 10° N
Cosmos 1818 4.1 18:09:37 10° SW 18:14:59 61° WNW 18:20:25 10° NNE
Cosmos 1726 3.0 18:12:36 10° SSW 18:15:13 35° W 18:17:52 10° N
Cosmos 1707 3.9 18:12:32 10° NNE 18:14:39 24° NE 18:14:39 24° NE
Cosmos 1536 3.9 18:20:00 27° NE 18:20:00 27° NE 18:22:14 10° NNE
Cosmos 1937 Rocket 4.0 18:13:30 10° NNW 18:18:43 62° WSW 18:23:44 11° S
Cosmos 1513 Rocket 4.3 18:14:28 10° S 18:20:26 65° E 18:26:26 10° NNE
BREEZE M DEB (TANK) 4.5 18:15:05 10° SW 18:20:34 87° SE 18:42:55 10° ENE
Meteor 1-14 Rocket 4.1 18:15:07 10° S 18:20:38 72° E 18:26:10 10° NNE
Cosmos 1464 Rocket 4.1 18:18:42 14° SSE 18:23:54 52° E 18:30:02 10° NNE
Lacrosse 4 Rocket 1.6 18:19:45 10° NNW 18:24:00 51° ENE 18:24:34 47° E
PAYLOAD B 4.5 18:18:27 10° S 18:24:00 71° WSW 18:29:37 10° NNW
Cosmos 1943 Rocket 3.7 18:20:46 10° N 18:24:35 19° NE 18:24:57 19° ENE
USA 59 Rocket 1.3 18:21:31 10° N 18:25:08 29° NE 18:25:31 28° ENE
KORONAS-FOTON 3.9 18:22:10 10° N 18:25:27 51° ENE 18:25:27 51° ENE
Meteor 1-11 Rocket 4.1 18:27:19 38° ESE 18:28:13 41° E 18:33:25 10° NNE
Cosmos 1356 Rocket 4.1 18:24:39 10° N 18:28:04 38° ENE 18:28:04 38° ENE
Terra 3.8 18:30:28 15° NE 18:30:28 15° NE 18:32:08 10° NNE
Cosmos 1328 Rocket 3.4 18:28:17 10° N 18:32:35 85° W 18:34:05 40° S
Meteor 1-4 Rocket 4.3 18:30:38 10° N 18:31:20 16° N 18:31:20 16° N
Cosmos 1674 2.6 18:31:45 10° NNW 18:35:03 65° W 18:35:10 64° WSW
CZ-4B R/B 3.4 18:33:16 19° S 18:37:19 72° WSW 18:42:47 10° NNW
CZ-4B R/B 4.5 18:34:40 11° SSW 18:37:44 31° W 18:41:10 10° NNW
ERS-1 Rocket 4.3 18:39:39 24° NE 18:39:39 24° NE 18:42:49 10° NNE
OAO 2 Rocket 3.8 18:34:21 10° W 18:39:00 43° SSW 18:39:33 42° S
Cosmos 2278 Rocket 2.8 18:35:33 10° N 18:40:48 37° ENE 18:41:07 37° ENE
NOSS 2-1 (C) 4.3 18:37:43 10° NNW 18:41:26 40° NE 18:41:26 40° NE
Cosmos 2034 Rocket 4.1 18:41:54 46° ESE 18:42:40 48° E 18:48:34 10° NNE
CARTOSAT-1 4.4 18:40:59 22° SSW 18:43:23 47° W 18:47:30 10° NNW
SPOT 5 3.3 18:45:10 44° NE 18:45:10 44° NE 18:49:04 10° N
Cosmos 1072 Rocket 4.5 18:40:48 10° S 18:47:12 88° E 18:53:39 10° N
NOSS 0 Rocket 3.9 18:45:25 10° SSW 18:51:39 88° WNW 18:57:56 10° NNE
Okean 3 Rocket 3.7 18:51:02 49° SSW 18:52:12 75° W 18:56:41 10° N
USA 306 3.9 18:51:22 10° W 18:54:09 33° NW 18:54:09 33° NW
Okean O Rocket 1.8 18:54:28 63° SW 18:54:55 69° WSW 18:59:21 10° NNW
USA 215 3.1 18:51:14 10° NE 18:57:46 72° SE 19:04:17 10° SW
USA 186 4.3 18:58:07 17° WSW 18:58:54 18° W 19:01:12 10° NW
Resurs 01 Rocket 3.2 18:57:00 18° SSW 18:59:37 32° W 19:03:35 10° NNW
ATLAS CENTAUR R/B 4.3 18:55:03 10° WNW 19:00:41 39° SW 19:05:09 23° S
Aureole 3 Rocket 4.2 19:01:28 42° SSE 19:04:12 68° E 19:10:16 10° NNE
Cosmos 2237 Rocket 2.0 19:04:46 80° SE 19:04:58 81° ESE 19:10:36 10° NNE
MOS 1 Rocket 4.0 19:06:49 45° NNE 19:06:49 45° NNE 19:10:40 10° N
ACS3 Solar Sail 2.0 19:05:10 40° S 19:07:37 74° W 19:14:01 10° NNW
Okean-O 3.3 19:12:12 50° NNW 19:12:12 50° NNW 19:15:30 10° NNW
MetOp-B 4.2 19:17:45 75° N 19:17:45 75° N 19:22:38 10° NNW
BlueWalker 3 4.1 19:13:54 10° NW 19:15:32 22° NNW 19:15:32 22° NNW
NOSS 2-1 (E) 4.3 19:13:22 10° NNW 19:16:32 53° NNW 19:16:32 53° NNW
Cosmos 44 Rocket 4.2 19:13:26 10° NW 19:17:37 39° WSW 19:17:37 39° WSW
USA 267 4.4 19:29:00 29° NE 19:30:04 31° NNE 19:35:40 10° NNW
Cosmos 1980 4.3 19:29:57 20° SW 19:33:42 54° WNW 19:39:17 10° NNE
Cosmos 2369 Rocket 4.4 19:38:17 10° NNE 19:39:53 14° NNE 19:39:53 14° NNE
Lacrosse 4 Rocket 4.4 19:59:39 10° WNW 20:00:26 12° W 20:00:26 12° W
Terra 4.0 20:09:11 22° NNW 20:09:11 22° NNW 20:10:59 10° NNW
Cosmos 1943 Rocket 3.6 20:03:19 10° NNW 20:06:28 34° NW 20:06:28 34° NW
USA 59 Rocket 2.7 20:10:32 10° WNW 20:11:54 19° WNW 20:11:54 19° WNW
Cosmos 2278 Rocket 4.1 20:19:55 10° NW 20:22:58 24° WNW 20:22:58 24° WNW
USA 215 4.5 20:34:35 10° NNE 20:40:26 36° NNW 20:46:17 10° W
